星链-30493 (STARLINK-30493 )

导读 | 豆包AI

STARLINK-30493是美国太空探索技术公司SpaceX星链互联网卫星星座中的一员,于2023年10月21日发射升空。星链星座旨在为全球提供低延迟、高速率的卫星互联网服务,该卫星入轨后,进一步拓展了星链星座的全球覆盖能力,推动全球互联网普及与太空网络基础设施建设。

Basic Information
目录编号:
58116
目录名称:
STARLINK-30493
国际标识:
2023-161V
轨道中心:
EARTH
卫星名称:
星链-30493
卫星全名:
星链-30493 (STARLINK-30493 )
卫星状态:
在轨 (已飞行922 天)
发射日期:
2023-10-21 UTC
国别 :
美国 (US)
星等 :
--
Orbit Information
数据来源 国际轨道数据 AOE轨道数据
星历时间 2026-04-30T01:30:50+0800
1天前
查看轨道信息
2026-04-26T03:00:00+0800
5天前
查看轨道信息
半长轴 6853.377km 6853.403km
偏心率 0.0001252 0.0001093
轨道倾角 53.161° 53.163°
近地点辐角 86.703° 73.109°
升交点赤经 288.629° 306.923°
平近点角 273.411° 181.232°
近地点 474.381km 474.516km
远地点 476.099km 476.016km
周期 94.106分钟 94.106分钟
每日圈数 15.301919 15.301831
Detailed Information
固有亮度:
5
最大亮度:
0.3
卫星平台:
Starlink v2.0 mini
覆盖范围:
全球
运营商:
太空探索技术公司
运营商所在国:
美国
制造商(研发单位):
太空探索技术公司
制造商所在国:
美国
使用方式:
暂无
Satellite Introduction
星链(Starlink)计划是由太空探索技术公司(SpaceX)提出的一个巨型低轨卫星互联网星座项目,计划在2019年至2024年间在太空搭建由约1.2万颗卫星组成的“星链”网络,其中1584颗将部署在地球上空550千米处的近地轨道,并从2020年开始工作。该卫星仍在工作。
2D Orbit Map
3D Orbit Map
Orbit Altitude Analysis Chart
Orbit Inclination Analysis Chart
Orbit Comprehensive Analysis Chart
View Comprehensive Chart